Regional Weather Roundup
Issued by NWS

Home | Current Version | Previous Version | Text Only | Print | Product List | Glossary Off
Versions: 1 2 3 4 5 6 7 8 9 10 11 12 13 14 15 16 17 18 19 20 21 22 23 24 25 26 27 28 29 30 31 32 33 34 35 36 37 38 39 40 41 42 43 44 45 46 47 48 49 50

000
ASUS45 KCYS 201910
RWRWY

WYOMING REGIONAL WEATHER ROUNDUP
NATIONAL WEATHER SERVICE CHEYENNE WY
1200 PM MST SAT JAN 20 2018

NOTE:  "FAIR" INDICATES FEW OR NO CLOUDS BELOW 12,000 FEET
WITH NO SIGNIFICANT WEATHER AND/OR OBSTRUCTIONS TO VISIBILITY.

WYZ001-202000-
YELLOWSTONE NATIONAL PARK

CITY           SKY/WX    TMP DP  RH WIND       PRES   REMARKS
LK YELLOWSTONE   N/A     17  13  84 VRB3      29.86F
W YELLOWSTONE  NOT AVBL

$$
WYZ002>013-054>058-071-098>099-202000-
NORTHERN WYOMING

CITY           SKY/WX    TMP DP  RH WIND       PRES   REMARKS
JACKSON        FAIR      27  17  66 N12       29.85F WCI  17
CODY           FAIR      34  23  64 CALM      29.90F
GREYBULL       CLOUDY    31  25  78 CALM      29.90F
WORLAND        CLOUDY    30  28  92 CALM      29.89F
SHERIDAN       CLOUDY    33  24  69 CALM      29.92F
BUFFALO        CLOUDY    32  18  56 N9        29.89F WCI  24
GILLETTE       PTSUNNY   31  25  78 N6        29.90S WCI  25
HULETT         CLOUDY    34  30  86 CALM      29.89F
NEWCASTLE      CLOUDY    32  28  86 CALM      29.89F

$$
WYZ014>020-022>026-101>103-202000-
CENTRAL WYOMING

CITY           SKY/WX    TMP DP  RH WIND       PRES   REMARKS
BIG PINEY      CLOUDY    27  16  63 N7        29.80F WCI  19
PINEDALE       CLOUDY    27  16  63 NW12      29.80F WCI  16
DUBOIS         CLOUDY    27  14  59 E3        29.78F
LANDER         LGT SNOW  28  25  88 NW5       29.84S VSB 1   WCI  23
RIVERTON       LGT SNOW  28  24  85 NE9       29.84F VSB 1   WCI  19
CASPER         LGT SNOW  27  25  92 NE15      29.85F VSB 1   WCI  15
DOUGLAS        LGT SNOW  31  27  85 N8        29.87F FOG     WCI  23

$$
WYZ021-027>030-104>119-202000-
SOUTHERN WYOMING

CITY           SKY/WX    TMP DP  RH WIND       PRES   REMARKS
EVANSTON       FOG       21  19  92 N15       29.78F VSB 3/4 WCI   8
FORT BRIDGER   LGT SNOW  24  24 100 N7        29.82F VSB 3/4 WCI  16
ROCK SPRINGS   SNOW      26  23  88 N6        29.77F WCI  19
DIXON          SNOW      30  28  92 CALM      29.79F VSB 1/2
RAWLINS        LGT SNOW  28  25  88 E5        29.77F FOG     WCI  23
SARATOGA       LGT SNOW  30  30 100 CALM      29.77F
LARAMIE        CLOUDY    45  25  45 SW9       29.73F
CHEYENNE       FOG       29  29 100 NE10      29.81F VSB 1/4 WCI  20
TORRINGTON     CLOUDY    34  31  88 NE13      29.85F WCI  25

$$



USA.gov is the U.S. government's official web portal to all federal, state and local government web resources and services.